This is the latest recevied weather packets stored in our database for station/object M0XDC-10. If no packets are shown the sender has not sent any weather packets the latest 10 day(s).
| Time | Temp. | Humidity | Pressure | Rain* | Wind** | Luminosity | Snow |
|---|---|---|---|---|---|---|---|
| 1777400101 | 25° C | 29% | 1024.4 hPa | - | - | - | - |
| 1777400064 | 25° C | 29% | 1024.4 hPa | - | - | - | - |
| 1777399163 | 25° C | 29% | 1024.3 hPa | - | - | - | - |
| 1777398263 | 25.56° C | 29% | 1024.2 hPa | - | - | - | - |
| 1777397372 | 25° C | 30% | 1024.1 hPa | - | - | - | - |
| 1777396508 | 25° C | 30% | 1024.1 hPa | - | - | - | - |
| 1777396472 | 25° C | 30% | 1024.1 hPa | - | - | - | - |
| 1777395572 | 24.44° C | 30% | 1024.1 hPa | - | - | - | - |
| 1777394671 | 24.44° C | 30% | 1024.1 hPa | - | - | - | - |
| 1777393771 | 24.44° C | 30% | 1024 hPa | - | - | - | - |
| 1777392871 | 24.44° C | 30% | 1023.9 hPa | - | - | - | - |
| 1777391971 | 23.89° C | 31% | 1023.8 hPa | - | - | - | - |
| 1777391070 | 23.89° C | 31% | 1023.8 hPa | - | - | - | - |
| 1777390169 | 23.89° C | 31% | 1023.9 hPa | - | - | - | - |
| 1777389269 | 23.33° C | 31% | 1024 hPa | - | - | - | - |
| 1777388368 | 23.33° C | 31% | 1024 hPa | - | - | - | - |
| 1777387468 | 23.33° C | 31% | 1024 hPa | - | - | - | - |
| 1777386600 | 23.33° C | 31% | 1023.9 hPa | - | - | - | - |
| 1777386567 | 23.33° C | 31% | 1023.9 hPa | - | - | - | - |
| 1777385667 | 23.33° C | 31% | 1024.2 hPa | - | - | - | - |
| 1777384766 | 23.33° C | 31% | 1024.2 hPa | - | - | - | - |
| 1777383865 | 23.33° C | 31% | 1024.3 hPa | - | - | - | - |
| 1777383061 | 22.78° C | 31% | 1024.4 hPa | - | - | - | - |
| 1777382965 | 22.78° C | 31% | 1024.4 hPa | - | - | - | - |
| 1777382100 | 22.78° C | 31% | 1024.6 hPa | - | - | - | - |
* Rain since midnight (hover to see other rain measurements)
** Current wind speed in m/s (hover to see current wind gust speed)